Printer-friendly version

IAU Minor Planet Center

Minor Planet Center

MPEC 2006-F40 : 2006 FK9

The following Minor Planet Electronic Circular may be linked-to from your own Web pages, but must not otherwise be redistributed electronically.


Read MPEC 2006-F39 Read MPEC 2006-F41


M.P.E.C. 2006-F40                                Issued 2006 Mar. 27, 18:42 UT

     The Minor Planet Electronic Circulars contain information on unusual
         minor planets and routine data on comets.  They are published
   on behalf of Commission 20 of the International Astronomical Union by the
          Minor Planet Center, Smithsonian Astrophysical Observatory,
                          Cambridge, MA 02138, U.S.A.

                  Supported in part by the Brinson Foundation
                  Supported in part by the TABASGO Foundation
             Prepared using the Tamkin Foundation Computer Network

                              MPC@CFA.HARVARD.EDU
          URL http://cfa-www.harvard.edu/iau/mpc.html  ISSN 1523-6714

                                   2006 FK9

Observations:
     K06F09K* C2006 03 25.37551 14 20 07.33 +16 35 54.2          19.2 V EF040703
     K06F09K  C2006 03 25.38455 14 20 07.26 +16 36 48.9          19.1 V EF040703
     K06F09K  C2006 03 25.39341 14 20 07.26 +16 37 43.8          19.2 V EF040703
     K06F09K  C2006 03 25.40219 14 20 07.36 +16 38 36.8          19.5 V EF040703
     K06F09K  C2006 03 25.44383 14 20 07.40 +16 42 50.0          19.1 V EF040703
     K06F09K  C2006 03 25.44580 14 20 07.36 +16 43 03.1          18.9 V EF040703
     K06F09K  C2006 03 25.44771 14 20 07.40 +16 43 13.5          19.2 V EF040703
     K06F09K  C2006 03 25.44960 14 20 07.40 +16 43 25.1          19.3 V EF040703
     K06F09K  C2006 03 25.94699 14 20 16.11 +17 33 11.4          19.3 R EF040J87
     K06F09K  C2006 03 25.95255 14 20 16.16 +17 33 44.8          19.3 R EF040J87
     K06F09K  C2006 03 25.95793 14 20 16.14 +17 34 17.1          19.2 R EF040J87
     K06F09K  C2006 03 26.32059 14 20 19.58 +18 10 04.5          19.5 R EF040854
     K06F09K  C2006 03 26.33209 14 20 19.68 +18 11 11.8          19.5 R EF040854
     K06F09K  C2006 03 26.33784 14 20 19.67 +18 11 46.4          19.5 R EF040854
     K06F09K  C2006 03 26.38142 14 20 19.50 +18 16 00.4          19.8 V EF040G96
     K06F09K  C2006 03 26.38912 14 20 19.48 +18 16 45.3          19.8 V EF040G96
     K06F09K  C2006 03 26.39678 14 20 19.45 +18 17 29.9          19.7 V EF040G96
     K06F09K  C2006 03 26.39823 14 20 18.94 +18 17 33.9          19.5 R EF040734
     K06F09K  C2006 03 26.40221 14 20 18.94 +18 17 57.2          19.8 R EF040734
     K06F09K  C2006 03 26.40458 14 20 19.42 +18 18 15.3          19.8 V EF040G96
     K06F09K  C2006 03 26.40806 14 20 18.89 +18 18 31.4          19.8 R EF040734

Observer details:
703 Catalina Sky Survey.  Observer S. M. Larson.  Measurers E. C. Beshore,
    E. J. Christensen, G. J. Garradd, A. R. Gibbs, A. D. Grauer, R. E. Hill,
    R. A. Kowalski, S. M. Larson, R. H. McNaught.  0.68-m Schmidt + CCD.
734 Farpoint Observatory.  Observer G. Hug.  0.7-m reflector + CCD.
854 Sabino Canyon Observatory, Tucson.  Observer J. E. McGaha.  0.36-m f/10.0
    Schmidt-Cassegrain + CCD.
G96 Mt. Lemmon Survey.  Observer R. A. Kowalski.  Measurers E. C. Beshore,
    E. J. Christensen, G. J. Garradd, A. R. Gibbs, A. D. Grauer, R. E. Hill,
    R. A. Kowalski, S. M. Larson, R. H. McNaught.  1.5-m reflector + CCD.
J87 La Canada.  Observer J. Lacruz.  0.30-m Schmidt-Cassegrain + CCD.

Orbital elements:
2006 FK9                                                 Earth MOID = 0.1465 AU
Epoch 2006 Mar. 26.0 TT = JDT 2453820.5                 MPC
M  29.29234              (2000.0)            P               Q
n   0.49328295     Peri.  316.55610     -0.70076342     -0.71314422
a   1.5863730      Node   177.67563     +0.71228001     -0.69794748
e   0.3228698      Incl.   27.72280     -0.03984746     +0.06553352
P   2.00           H   21.0           G   0.15
From 21 observations 2006 Mar. 25-26.

Ephemeris:
2006 FK9                 a,e,i = 1.59, 0.32, 28                  q = 1.0742
Date    TT    R. A. (2000) Decl.     Delta      r     Elong.  Phase     V
2006 03 26    14 20.25   +17 38.7    0.243    1.203   144.2    29.0    19.6
2006 03 31    14 20.42   +24 57.6    0.271    1.223   141.7    30.4    19.9
2006 04 05    14 19.29   +30 32.1    0.303    1.243   138.4    32.3    20.2
2006 04 10    14 17.28   +34 38.3    0.339    1.265   135.0    34.1    20.6
2006 04 15    14 14.77   +37 33.5    0.378    1.286   131.8    35.6    20.9
2006 04 20    14 12.11   +39 32.6    0.419    1.309   128.8    36.7    21.2
2006 04 25    14 09.56   +40 47.0    0.461    1.331   126.2    37.6    21.5
2006 04 30    14 07.36   +41 25.7    0.505    1.354   123.7    38.2    21.7
2006 05 05    14 05.72   +41 35.6    0.549    1.377   121.5    38.6    21.9

Brian G. Marsden             (C) Copyright 2006 MPC           M.P.E.C. 2006-F40

Read MPEC 2006-F39 Read MPEC 2006-F41


Our Web policy. Index to the CBAT/MPC/ICQ pages.


Valid HTML 4.01!